Hourly Data Report for September 30, 2016

All times are specified in Local Standard Time (LST). Add 1 hour to adjust for Daylight Saving Time where and when it is observed.

CORAL HARBOUR A
NUNAVUT

64°11'36.000" N
83°21'34.000" W
62.20 m
2301002
71915
YZS

Download Data

Hourly Data (September 2016)
Hourly Data Report for September 30, 2016
Temp Definition
°C
Dew Point Temp Definition
°C
Rel Hum Definition
%
Wind Dir Definition
10's deg

Wind Spd Definition
km/h
Visibility Definition
km
Stn Press Definition
kPa
Hmdx Definition


Wind Chill Definition


Weather Definition


TIME
00:00 Legend Double Dagger 0.2 -4.5 71 29 28 24.1 100.39     LegendNANA
01:00 Legend Double Dagger -0.2 -4.3 74 27 30 24.1 100.40   -7 Mostly Cloudy
02:00 Legend Double Dagger 0.0 -4.3 73 27 34 24.1 100.42   -7 LegendNANA
03:00 Legend Double Dagger -0.5 -3.7 79 26 29 24.1 100.42   -7 LegendNANA
04:00 Legend Double Dagger -1.0 -3.7 82 27 22 24.1 100.45   -7 Mainly Clear
05:00 Legend Double Dagger -1.2 -3.4 85 27 21 24.1 100.46   -7 LegendNANA
06:00 Legend Double Dagger -1.2 -2.9 88 31 11 24.1 100.48   -5 LegendNANA
07:00 Legend Double Dagger -1.0 -2.7 88 28 18 24.1 100.46   -6 Mostly Cloudy
08:00 Legend Double Dagger 0.3 -1.9 85 26 17 24.1 100.48     LegendNANA
09:00 Legend Double Dagger 1.1 -1.3 84 29 10 24.1 100.47     LegendNANA
10:00 Legend Double Dagger 2.4 -2.1 72 31 26 24.1 100.47     Mainly Clear
11:00 Legend Double Dagger 2.9 -5.5 54 31 35 24.1 100.49     LegendNANA
12:00 Legend Double Dagger 2.3 -3.6 65 30 39 24.1 100.55     LegendNANA
13:00 Legend Double Dagger 2.1 -3.0 69 31 36 24.1 100.63     Mainly Clear
14:00 Legend Double Dagger 2.3 -2.8 69 30 37 24.1 100.68     LegendNANA
15:00 Legend Double Dagger 2.4 -2.3 71 31 39 24.1 100.74     LegendNANA
16:00 Legend Double Dagger 0.5 -3.1 77 31 36 24.1 100.84     Mostly Cloudy
17:00 Legend Double Dagger 0.0 -3.2 79 31 31 24.1 100.88   -7 LegendNANA
18:00 Legend Double Dagger -0.4 -3.3 81 30 30 24.1 100.94   -7 LegendNANA
19:00 Legend Double Dagger -0.7 -3.4 82 31 24 24.1 100.97   -7 Mainly Clear
20:00 Legend Double Dagger -1.4 -3.4 86 31 14 24.1 101.02   -6 LegendNANA
21:00 Legend Double Dagger -1.8 -3.5 88 29 15 24.1 101.02   -7 LegendNANA
22:00 Legend Double Dagger -2.0 -3.4 90 28 16 24.1 101.05   -7 Mainly Clear
23:00 Legend Double Dagger -1.9 -3.2 91 24 7 24.1 101.07   -5 LegendNANA

Notes on Data Quality.

Legend

  • E = Estimated
  • M = Missing
  • NA = Not Available
  • ‡ = Partner data that is not subject to review by the National Climate Archives
Date modified: